TimeCDT,TemperatureF,Dew PointF,Humidity,Sea Level PressureIn,VisibilityMPH,Wind Direction,Wind SpeedMPH,Gust SpeedMPH,PrecipitationIn,Events,Conditions,WindDirDegrees,DateUTC
12:15 AM,51.8,48.2,88,30.21,10.0,Calm,Calm,-,N/A,,Clear,0,2011-10-05 05:15:00
12:35 AM,51.8,48.2,88,30.22,10.0,Calm,Calm,-,N/A,,Clear,0,2011-10-05 05:35:00
12:55 AM,48.2,46.4,93,30.22,10.0,Calm,Calm,-,N/A,,Clear,0,2011-10-05 05:55:00
1:15 AM,48.2,46.4,93,30.22,10.0,Calm,Calm,-,N/A,,Clear,0,2011-10-05 06:15:00
1:35 AM,48.2,46.4,93,30.22,10.0,Calm,Calm,-,N/A,,Clear,0,2011-10-05 06:35:00
2:15 AM,48.2,44.6,87,30.22,10.0,Calm,Calm,-,N/A,,Clear,0,2011-10-05 07:15:00
2:35 AM,48.2,44.6,87,30.23,10.0,Calm,Calm,-,N/A,,Clear,0,2011-10-05 07:35:00
2:55 AM,46.4,44.6,93,30.23,10.0,Calm,Calm,-,N/A,,Clear,0,2011-10-05 07:55:00
3:15 AM,46.4,44.6,93,30.23,10.0,Calm,Calm,-,N/A,,Clear,0,2011-10-05 08:15:00
3:35 AM,48.2,44.6,87,30.23,10.0,Calm,Calm,-,N/A,,Clear,0,2011-10-05 08:35:00
3:55 AM,46.4,44.6,93,30.23,10.0,Calm,Calm,-,N/A,,Clear,0,2011-10-05 08:55:00
4:15 AM,48.2,44.6,87,30.23,10.0,Calm,Calm,-,N/A,,Clear,0,2011-10-05 09:15:00
4:55 AM,44.6,42.8,93,30.23,2.0,Calm,Calm,-,N/A,,Clear,0,2011-10-05 09:55:00
5:15 AM,46.4,42.8,87,30.23,7.0,Calm,Calm,-,N/A,,Clear,0,2011-10-05 10:15:00
5:35 AM,44.6,42.8,93,30.23,3.0,Calm,Calm,-,N/A,,Clear,0,2011-10-05 10:35:00
5:55 AM,46.4,42.8,87,30.24,10.0,Calm,Calm,-,N/A,,Clear,0,2011-10-05 10:55:00
6:35 AM,46.4,42.8,87,30.25,10.0,Calm,Calm,-,N/A,,Clear,0,2011-10-05 11:35:00
6:55 AM,44.6,42.8,93,30.26,10.0,Calm,Calm,-,N/A,,Clear,0,2011-10-05 11:55:00
7:15 AM,46.4,42.8,87,30.26,10.0,Calm,Calm,-,N/A,,Clear,0,2011-10-05 12:15:00
7:35 AM,48.2,46.4,93,30.26,10.0,Calm,Calm,-,N/A,,Clear,0,2011-10-05 12:35:00
8:15 AM,53.6,48.2,82,30.27,10.0,Calm,Calm,-,N/A,,Clear,0,2011-10-05 13:15:00
8:35 AM,55.4,51.8,88,30.28,10.0,ENE,3.5,-,N/A,,Clear,60,2011-10-05 13:35:00
9:15 AM,62.6,53.6,72,30.28,10.0,ENE,5.8,-,N/A,,Clear,70,2011-10-05 14:15:00
9:35 AM,62.6,51.8,68,30.29,10.0,ENE,4.6,-,N/A,,Clear,70,2011-10-05 14:35:00
9:55 AM,64.4,51.8,64,30.28,10.0,East,5.8,-,N/A,,Clear,80,2011-10-05 14:55:00
10:15 AM,66.2,53.6,64,30.28,10.0,ENE,5.8,-,N/A,,Clear,60,2011-10-05 15:15:00
10:35 AM,68.0,53.6,60,30.28,10.0,ENE,4.6,-,N/A,,Clear,70,2011-10-05 15:35:00
10:55 AM,69.8,53.6,56,30.28,10.0,Calm,Calm,-,N/A,,Clear,0,2011-10-05 15:55:00
11:15 AM,69.8,51.8,53,30.27,10.0,East,3.5,-,N/A,,Clear,80,2011-10-05 16:15:00
11:35 AM,71.6,51.8,50,30.27,10.0,East,3.5,-,N/A,,Clear,90,2011-10-05 16:35:00
11:55 AM,73.4,53.6,50,30.26,10.0,East,3.5,-,N/A,,Clear,100,2011-10-05 16:55:00
12:15 PM,73.4,55.4,53,30.25,10.0,ESE,3.5,-,N/A,,Clear,120,2011-10-05 17:15:00
12:35 PM,75.2,55.4,50,30.25,10.0,ESE,3.5,-,N/A,,Clear,110,2011-10-05 17:35:00
12:55 PM,77.0,53.6,44,30.23,10.0,Calm,Calm,-,N/A,,Clear,0,2011-10-05 17:55:00
1:15 PM,77.0,51.8,41,30.22,10.0,Calm,Calm,-,N/A,,Clear,0,2011-10-05 18:15:00
1:35 PM,78.8,53.6,42,30.22,10.0,North,4.6,-,N/A,,Clear,360,2011-10-05 18:35:00
2:15 PM,78.8,50.0,36,30.20,10.0,Calm,Calm,-,N/A,,Clear,0,2011-10-05 19:15:00
2:35 PM,80.6,51.8,37,30.19,10.0,ENE,4.6,-,N/A,,Clear,70,2011-10-05 19:35:00
2:55 PM,78.8,51.8,39,30.19,10.0,Calm,Calm,-,N/A,,Clear,0,2011-10-05 19:55:00
3:15 PM,78.8,51.8,39,30.19,10.0,Calm,Calm,-,N/A,,Clear,0,2011-10-05 20:15:00
3:35 PM,78.8,51.8,39,30.19,10.0,Calm,Calm,-,N/A,,Clear,0,2011-10-05 20:35:00
4:15 PM,80.6,53.6,39,30.18,10.0,NE,3.5,-,N/A,,Clear,40,2011-10-05 21:15:00
4:55 PM,78.8,53.6,42,30.17,10.0,North,4.6,-,N/A,,Clear,360,2011-10-05 21:55:00
5:15 PM,77.0,55.4,47,30.17,10.0,Calm,Calm,-,N/A,,Clear,0,2011-10-05 22:15:00
5:35 PM,77.0,55.4,47,30.17,10.0,ENE,3.5,-,N/A,,Clear,60,2011-10-05 22:35:00
5:55 PM,71.6,55.4,57,30.17,10.0,Calm,Calm,-,N/A,,Clear,0,2011-10-05 22:55:00
6:15 PM,69.8,57.2,64,30.17,10.0,Calm,Calm,-,N/A,,Clear,0,2011-10-05 23:15:00
6:35 PM,66.2,55.4,68,30.17,10.0,Calm,Calm,-,N/A,,Clear,0,2011-10-05 23:35:00
6:55 PM,64.4,55.4,73,30.17,10.0,Calm,Calm,-,N/A,,Clear,0,2011-10-05 23:55:00
7:15 PM,62.6,55.4,77,30.18,10.0,Calm,Calm,-,N/A,,Clear,0,2011-10-06 00:15:00
7:35 PM,62.6,53.6,72,30.18,10.0,Calm,Calm,-,N/A,,Clear,0,2011-10-06 00:35:00
7:55 PM,60.8,53.6,77,30.18,10.0,Calm,Calm,-,N/A,,Clear,0,2011-10-06 00:55:00
8:15 PM,59.0,55.4,88,30.19,10.0,Calm,Calm,-,N/A,,Clear,0,2011-10-06 01:15:00
8:35 PM,57.2,53.6,88,30.19,10.0,Calm,Calm,-,N/A,,Clear,0,2011-10-06 01:35:00
8:55 PM,57.2,53.6,88,30.19,10.0,Calm,Calm,-,N/A,,Clear,0,2011-10-06 01:55:00
9:15 PM,57.2,53.6,88,30.19,10.0,Calm,Calm,-,N/A,,Clear,0,2011-10-06 02:15:00
9:35 PM,57.2,53.6,88,30.20,10.0,Calm,Calm,-,N/A,,Clear,0,2011-10-06 02:35:00
9:55 PM,55.4,51.8,88,30.20,10.0,Calm,Calm,-,N/A,,Clear,0,2011-10-06 02:55:00
10:15 PM,55.4,51.8,88,30.20,10.0,Calm,Calm,-,N/A,,Clear,0,2011-10-06 03:15:00
10:35 PM,55.4,51.8,88,30.20,10.0,Calm,Calm,-,N/A,,Clear,0,2011-10-06 03:35:00
10:55 PM,53.6,50.0,88,30.20,10.0,Calm,Calm,-,N/A,,Clear,0,2011-10-06 03:55:00
11:15 PM,55.4,51.8,88,30.20,10.0,Calm,Calm,-,N/A,,Clear,0,2011-10-06 04:15:00
11:35 PM,53.6,51.8,94,30.20,10.0,Calm,Calm,-,N/A,,Clear,0,2011-10-06 04:35:00
11:55 PM,53.6,50.0,88,30.20,10.0,Calm,Calm,-,N/A,,Clear,0,2011-10-06 04:55:00